Weather History for KFDR - June, 2014

Change the Weather History Date:

Monday, June 16, 2014

  Actual Average (KLTS) Record (KLTS)
Temperature  
Mean Temperature 86 °F -  
Max Temperature 97 °F 89 °F 106 °F (2011)
Min Temperature 75 °F 66 °F 59 °F (1998)
Cooling Degree Days 20    
Growing Degree Days 36 (Base 50)    
Moisture  
Dew Point 68 °F    
Average Humidity 57    
Maximum Humidity 79    
Minimum Humidity 38    
Precipitation  
Precipitation 0.00 in - - ()
Sea Level Pressure  
Sea Level Pressure 29.79 in    
Wind  
Wind Speed 14 mph (SSE)    
Max Wind Speed 25 mph    
Max Gust Speed 31 mph    
Visibility 10 miles    
Events      
Averages and records for this station are not official NWS values.
T = Trace of Precipitation, MM = Missing Value Source: NWS Daily Summary

Daily Weather History Graph

Daily Weather History Graph

Search for Another Location

Airport or City:

Trip Planner

Search our weather history database for the weather conditions in past years. The results will help you decide how hot, cold, wet, or windy it might be!

Date:

Astronomy

Jun. 16, 2014 Rise Set
Actual Time 6:23 AM CDT 8:50 PM CDT
Civil Twilight 5:53 AM CDT 9:19 PM CDT
Nautical Twilight 5:17 AM CDT 9:55 PM CDT
Astronomical Twilight 4:38 AM CDT 10:35 PM CDT
Moon 11:53 PM CDT (6/16) 10:20 AM CDT (6/16)
Length of Visible Light 15h 25m
Length of Day
14h 26m
Waning Gibbous, 83% of the Moon is Illuminated
Jun 16
Waning Gibbous
Jun 19
Last Quarter
Jun 27
New
Jul 5
First Quarter
Jul 12
Full

Hourly Weather History & Observations

Time (CDT) Temp. Heat Index Dew Point Humidity Pressure Visibility Wind Dir Wind Speed Gust Speed Precip Events Conditions
12:53 AM 79.0 °F - 68.0 °F 69% 29.81 in 10.0 mi SSE 10.4 mph - N/A   Clear
1:53 AM 77.0 °F - 66.9 °F 71% 29.80 in 10.0 mi SE 10.4 mph - N/A   Clear
2:53 AM 75.9 °F - 68.0 °F 76% 29.80 in 10.0 mi SE 9.2 mph - N/A   Clear
3:53 AM 75.0 °F - 68.0 °F 79% 29.80 in 10.0 mi SE 8.1 mph - N/A   Clear
4:53 AM 77.0 °F - 69.1 °F 76% 29.80 in 10.0 mi SSE 9.2 mph - N/A   Clear
5:53 AM 77.0 °F - 69.1 °F 76% 29.81 in 10.0 mi South 9.2 mph - N/A   Clear
6:53 AM 75.9 °F - 69.1 °F 79% 29.82 in 10.0 mi SSE 12.7 mph - N/A   Clear
7:53 AM 79.0 °F - 69.1 °F 72% 29.83 in 10.0 mi South 17.3 mph - N/A   Clear
8:53 AM 80.1 °F 82.9 °F 69.1 °F 69% 29.84 in 10.0 mi South 20.7 mph 24.2 mph N/A   Clear
9:53 AM 82.9 °F 86.5 °F 69.1 °F 63% 29.84 in 10.0 mi South 19.6 mph 28.8 mph N/A   Clear
10:53 AM 86.0 °F 90.7 °F 70.0 °F 59% 29.83 in 10.0 mi South 21.9 mph 27.6 mph N/A   Clear
11:53 AM 90.0 °F 95.4 °F 70.0 °F 52% 29.83 in 10.0 mi South 20.7 mph 27.6 mph N/A   Clear
12:53 PM 91.9 °F 97.4 °F 70.0 °F 48% 29.82 in 10.0 mi South 19.6 mph 26.5 mph N/A   Clear
1:53 PM 93.9 °F 98.6 °F 68.0 °F 43% 29.80 in 10.0 mi South 20.7 mph 28.8 mph N/A   Clear
2:53 PM 96.1 °F 101.0 °F 68.0 °F 40% 29.78 in 10.0 mi South 21.9 mph 31.1 mph N/A   Clear
3:53 PM 96.1 °F 101.0 °F 68.0 °F 40% 29.77 in 10.0 mi South 21.9 mph 29.9 mph N/A   Partly Cloudy
4:53 PM 96.1 °F 99.9 °F 66.9 °F 38% 29.75 in 10.0 mi South 25.3 mph 31.1 mph N/A   Scattered Clouds
5:53 PM 95.0 °F 99.0 °F 66.9 °F 40% 29.74 in 10.0 mi South 21.9 mph 31.1 mph N/A   Clear
6:53 PM 93.9 °F 96.1 °F 64.9 °F 38% 29.73 in 10.0 mi South 24.2 mph 28.8 mph N/A   Clear
7:53 PM 91.9 °F 94.1 °F 64.9 °F 41% 29.74 in 10.0 mi South 20.7 mph - N/A   Clear
8:53 PM 89.1 °F 91.0 °F 64.9 °F 45% 29.75 in 10.0 mi South 13.8 mph - N/A   Clear
9:53 PM 86.0 °F 87.3 °F 64.0 °F 48% 29.77 in 10.0 mi SSE 11.5 mph - N/A   Clear
10:53 PM 84.0 °F 85.8 °F 64.9 °F 53% 29.80 in 10.0 mi SSE 13.8 mph - N/A   Clear
11:53 PM 81.0 °F 82.7 °F 64.9 °F 58% 29.79 in 10.0 mi SE 12.7 mph - N/A   Clear